Location: Huntsville
(41.2590°N, 111.7678°W)
Time: 20:18:39
(UTC+00:00)

N. Korean satellite - Pass Details

Date: 05 December 2021
Orbit: 446 x 492 km, 97.3° (Epoch: 18 January)

Event Time Altitude Azimuth Distance (km) Brightness Sun altitude
Rises 13:41:31 0° 352° (N) 2,461 9.9 -10.4°
Reaches altitude 10° 13:44:11 10° 329° (NNW) 1,580 8.7 -9.9°
Maximum altitude 13:46:12 15° 292° (WNW) 1,294 8.0 -9.6°
Drops below altitude 10° 13:48:12 10° 255° (WSW) 1,572 8.7 -9.2°
Sets 13:50:50 0° 232° (SW) 2,440 9.8 -8.7°
